Time,TemperatureF,DewpointF,PressureIn,WindDirection,WindDirectionDegrees,WindSpeedMPH,WindSpeedGustMPH,Humidity,HourlyPrecipIn,Conditions,Clouds,dailyrainin,SoftwareType,DateUTC
2013-02-05 00:01:00,65.3,61.6,30.08,North,359,27.0,40.0,88,0.00,,,0.00,Weather View 32 v70,2013-02-05 10:01:00,
2013-02-05 00:06:00,65.6,61.9,30.09,NNW,334,29.0,39.0,88,0.00,,,0.00,Weather View 32 v70,2013-02-05 10:06:00,
2013-02-05 00:11:00,65.9,62.2,30.09,NNW,338,27.0,39.0,88,0.00,,,0.00,Weather View 32 v70,2013-02-05 10:11:00,
2013-02-05 00:16:00,66.2,62.2,30.08,North,353,29.0,39.0,87,0.00,,,0.00,Weather View 32 v70,2013-02-05 10:16:00,
2013-02-05 00:21:00,66.1,62.4,30.06,North,10,28.0,39.0,88,0.00,,,0.00,Weather View 32 v70,2013-02-05 10:21:00,
2013-02-05 00:26:00,66.1,62.4,30.08,North,359,24.0,39.0,88,0.00,,,0.00,Weather View 32 v70,2013-02-05 10:26:00,
2013-02-05 00:31:00,65.9,62.6,30.09,North,351,36.0,40.0,89,0.00,,,0.00,Weather View 32 v70,2013-02-05 10:31:00,
2013-02-05 00:36:00,65.9,62.2,30.06,NNE,15,28.0,40.0,88,0.00,,,0.00,Weather View 32 v70,2013-02-05 10:36:00,
2013-02-05 00:41:00,66.0,62.0,30.07,North,6,27.0,40.0,87,0.00,,,0.00,Weather View 32 v70,2013-02-05 10:41:00,
2013-02-05 00:46:00,66.1,61.4,30.08,NNE,16,32.0,40.0,85,0.00,,,0.00,Weather View 32 v70,2013-02-05 10:46:00,
2013-02-05 00:51:00,66.3,62.0,30.07,North,9,29.0,40.0,86,0.00,,,0.00,Weather View 32 v70,2013-02-05 10:51:00,
2013-02-05 00:56:00,66.1,62.4,30.08,North,356,33.0,40.0,88,0.00,,,0.00,Weather View 32 v70,2013-02-05 10:56:00,
2013-02-05 01:01:00,66.0,62.0,30.07,NNE,12,34.0,40.0,87,0.00,,,0.00,Weather View 32 v70,2013-02-05 11:01:00,
2013-02-05 01:06:00,66.1,61.8,30.07,North,4,26.0,40.0,86,0.00,,,0.00,Weather View 32 v70,2013-02-05 11:06:00,
2013-02-05 01:11:00,66.2,61.5,30.08,NNE,12,25.0,40.0,85,0.00,,,0.00,Weather View 32 v70,2013-02-05 11:11:00,
2013-02-05 01:16:00,66.2,61.5,30.07,North,7,33.0,40.0,85,0.00,,,0.00,Weather View 32 v70,2013-02-05 11:16:00,
2013-02-05 01:21:00,66.2,61.9,30.07,NNE,16,24.0,40.0,86,0.00,,,0.00,Weather View 32 v70,2013-02-05 11:21:00,
2013-02-05 01:26:00,66.2,61.9,30.08,NNE,28,20.0,40.0,86,0.00,,,0.00,Weather View 32 v70,2013-02-05 11:26:00,
2013-02-05 01:31:00,66.1,61.8,30.08,North,10,25.0,37.0,86,0.00,,,0.00,Weather View 32 v70,2013-02-05 11:31:00,
2013-02-05 01:36:00,66.0,61.7,30.08,NNE,17,29.0,37.0,86,0.00,,,0.00,Weather View 32 v70,2013-02-05 11:36:00,
2013-02-05 01:41:00,66.0,61.7,30.08,NNE,14,24.0,37.0,86,0.00,,,0.00,Weather View 32 v70,2013-02-05 11:41:00,
2013-02-05 01:46:00,65.8,61.5,30.08,NNE,21,26.0,37.0,86,0.00,,,0.00,Weather View 32 v70,2013-02-05 11:46:00,
2013-02-05 01:51:00,65.9,61.6,30.07,NNE,15,27.0,37.0,86,0.00,,,0.00,Weather View 32 v70,2013-02-05 11:51:00,
2013-02-05 01:56:00,66.0,61.7,30.08,North,354,26.0,37.0,86,0.00,,,0.00,Weather View 32 v70,2013-02-05 11:56:00,
2013-02-05 02:01:00,66.2,61.5,30.08,NNE,17,24.0,37.0,85,0.00,,,0.00,Weather View 32 v70,2013-02-05 12:01:00,
2013-02-05 02:06:00,66.2,61.5,30.09,NNE,14,22.0,37.0,85,0.00,,,0.00,Weather View 32 v70,2013-02-05 12:06:00,
2013-02-05 02:11:00,66.2,61.2,30.08,North,3,26.0,37.0,84,0.00,,,0.00,Weather View 32 v70,2013-02-05 12:11:00,
2013-02-05 02:16:00,65.7,60.7,30.09,NNE,24,19.0,37.0,84,0.00,,,0.00,Weather View 32 v70,2013-02-05 12:16:00,
2013-02-05 02:21:00,65.3,60.3,30.09,NNE,22,17.0,35.0,84,0.00,,,0.00,Weather View 32 v70,2013-02-05 12:21:00,
2013-02-05 02:26:00,64.9,60.3,30.08,NNE,22,21.0,34.0,85,0.00,,,0.00,Weather View 32 v70,2013-02-05 12:26:00,
2013-02-05 02:31:00,64.3,60.0,30.07,NNW,341,29.0,34.0,86,0.00,,,0.00,Weather View 32 v70,2013-02-05 12:31:00,
2013-02-05 02:36:00,64.1,60.1,30.08,North,8,22.0,34.0,87,0.00,,,0.00,Weather View 32 v70,2013-02-05 12:36:00,
2013-02-05 02:41:00,64.1,60.5,30.08,North,10,19.0,34.0,88,0.00,,,0.00,Weather View 32 v70,2013-02-05 12:41:00,
2013-02-05 02:46:00,63.8,60.5,30.08,North,357,20.0,34.0,89,0.00,,,0.00,Weather View 32 v70,2013-02-05 12:46:00,
2013-02-05 02:51:00,64.1,60.5,30.08,NNE,20,19.0,34.0,88,0.00,,,0.00,Weather View 32 v70,2013-02-05 12:51:00,
2013-02-05 02:56:00,64.9,60.6,30.07,North,349,26.0,31.0,86,0.00,,,0.00,Weather View 32 v70,2013-02-05 12:56:00,
2013-02-05 03:01:00,65.1,60.5,30.07,NNW,344,26.0,31.0,85,0.00,,,0.00,Weather View 32 v70,2013-02-05 13:01:00,
2013-02-05 03:06:00,65.2,60.6,30.08,NNE,14,24.0,31.0,85,0.00,,,0.00,Weather View 32 v70,2013-02-05 13:06:00,
2013-02-05 03:11:00,65.4,60.4,30.07,North,2,21.0,32.0,84,0.00,,,0.00,Weather View 32 v70,2013-02-05 13:11:00,
2013-02-05 03:16:00,65.7,60.4,30.07,North,8,25.0,32.0,83,0.00,,,0.00,Weather View 32 v70,2013-02-05 13:16:00,
2013-02-05 03:21:00,65.5,60.2,30.08,NE,46,18.0,32.0,83,0.00,,,0.00,Weather View 32 v70,2013-02-05 13:21:00,
2013-02-05 03:26:00,65.4,60.1,30.07,North,6,22.0,32.0,83,0.00,,,0.00,Weather View 32 v70,2013-02-05 13:26:00,
2013-02-05 03:31:00,65.5,59.8,30.07,NNE,18,23.0,32.0,82,0.00,,,0.00,Weather View 32 v70,2013-02-05 13:31:00,
2013-02-05 03:36:00,65.7,59.7,30.07,NNE,18,21.0,32.0,81,0.00,,,0.00,Weather View 32 v70,2013-02-05 13:36:00,
2013-02-05 03:41:00,65.9,59.9,30.06,North,1,25.0,32.0,81,0.00,,,0.00,Weather View 32 v70,2013-02-05 13:41:00,
2013-02-05 03:46:00,66.0,60.0,30.07,North,350,26.0,32.0,81,0.00,,,0.00,Weather View 32 v70,2013-02-05 13:46:00,
2013-02-05 03:52:00,66.1,60.1,30.06,NNE,14,27.0,32.0,81,0.00,,,0.00,Weather View 32 v70,2013-02-05 13:52:00,
2013-02-05 03:57:00,66.1,60.1,30.06,NNW,348,26.0,32.0,81,0.00,,,0.00,Weather View 32 v70,2013-02-05 13:57:00,
2013-02-05 04:02:00,66.2,60.2,30.07,North,10,30.0,33.0,81,0.00,,,0.00,Weather View 32 v70,2013-02-05 14:02:00,
2013-02-05 04:07:00,66.1,60.1,30.06,NNE,31,21.0,33.0,81,0.00,,,0.00,Weather View 32 v70,2013-02-05 14:07:00,
2013-02-05 04:12:00,66.0,60.3,30.06,NNE,12,29.0,35.0,82,0.00,,,0.00,Weather View 32 v70,2013-02-05 14:12:00,
2013-02-05 04:17:00,65.8,60.5,30.06,NNE,29,27.0,35.0,83,0.00,,,0.00,Weather View 32 v70,2013-02-05 14:17:00,
2013-02-05 04:22:00,64.5,59.9,30.07,North,11,24.0,35.0,85,0.00,,,0.00,Weather View 32 v70,2013-02-05 14:22:00,
2013-02-05 04:27:00,64.5,59.9,30.05,NNE,12,25.0,35.0,85,0.00,,,0.00,Weather View 32 v70,2013-02-05 14:27:00,
2013-02-05 04:32:00,64.8,59.5,30.06,North,10,22.0,35.0,83,0.00,,,0.00,Weather View 32 v70,2013-02-05 14:32:00,
2013-02-05 04:37:00,64.9,59.3,30.06,North,351,19.0,35.0,82,0.00,,,0.00,Weather View 32 v70,2013-02-05 14:37:00,
2013-02-05 04:42:00,65.0,59.0,30.06,NNE,18,26.0,35.0,81,0.00,,,0.00,Weather View 32 v70,2013-02-05 14:42:00,
2013-02-05 04:47:00,64.9,59.3,30.06,North,1,28.0,35.0,82,0.00,,,0.00,Weather View 32 v70,2013-02-05 14:47:00,
2013-02-05 04:52:00,64.6,59.0,30.06,North,359,24.0,35.0,82,0.00,,,0.00,Weather View 32 v70,2013-02-05 14:52:00,
2013-02-05 04:57:00,64.3,59.0,30.07,North,355,25.0,35.0,83,0.00,,,0.00,Weather View 32 v70,2013-02-05 14:57:00,
2013-02-05 05:02:00,64.0,59.1,30.07,East,80,23.0,35.0,84,0.00,,,0.00,Weather View 32 v70,2013-02-05 15:02:00,
2013-02-05 05:07:00,63.8,59.2,30.06,North,357,23.0,35.0,85,0.00,,,0.00,Weather View 32 v70,2013-02-05 15:07:00,
2013-02-05 05:12:00,63.6,59.3,30.07,NNW,329,19.0,34.0,86,0.00,,,0.00,Weather View 32 v70,2013-02-05 15:12:00,
2013-02-05 05:17:00,63.7,59.4,30.06,NNW,334,27.0,33.0,86,0.00,,,0.00,Weather View 32 v70,2013-02-05 15:17:00,
2013-02-05 05:22:00,64.3,59.3,30.06,NNE,19,20.0,33.0,84,0.00,,,0.00,Weather View 32 v70,2013-02-05 15:22:00,
2013-02-05 05:27:00,65.0,59.4,30.06,NNW,341,20.0,33.0,82,0.00,,,0.00,Weather View 32 v70,2013-02-05 15:27:00,
2013-02-05 05:32:00,65.5,59.5,30.06,NE,37,21.0,33.0,81,0.00,,,0.00,Weather View 32 v70,2013-02-05 15:32:00,
2013-02-05 05:37:00,65.6,59.6,30.07,North,354,22.0,33.0,81,0.00,,,0.00,Weather View 32 v70,2013-02-05 15:37:00,
2013-02-05 05:42:00,65.4,59.4,30.06,North,4,24.0,33.0,81,0.00,,,0.00,Weather View 32 v70,2013-02-05 15:42:00,
2013-02-05 05:47:00,65.5,59.5,30.07,North,354,24.0,34.0,81,0.00,,,0.00,Weather View 32 v70,2013-02-05 15:47:00,
2013-02-05 05:52:00,65.6,59.6,30.06,North,355,30.0,36.0,81,0.00,,,0.00,Weather View 32 v70,2013-02-05 15:52:00,
2013-02-05 05:57:00,65.3,59.3,30.07,NNW,341,24.0,36.0,81,0.00,,,0.00,Weather View 32 v70,2013-02-05 15:57:00,
2013-02-05 06:02:00,65.2,59.5,30.07,North,350,22.0,36.0,82,0.00,,,0.00,Weather View 32 v70,2013-02-05 16:02:00,
2013-02-05 06:07:00,65.1,59.8,30.07,North,349,25.0,36.0,83,0.00,,,0.00,Weather View 32 v70,2013-02-05 16:07:00,
2013-02-05 06:12:00,65.3,59.6,30.06,WNW,303,23.0,36.0,82,0.00,,,0.00,Weather View 32 v70,2013-02-05 16:12:00,
2013-02-05 06:17:00,65.4,59.7,30.07,NNW,331,23.0,36.0,82,0.00,,,0.00,Weather View 32 v70,2013-02-05 16:17:00,
2013-02-05 06:22:00,65.3,60.0,30.06,North,4,27.0,36.0,83,0.00,,,0.00,Weather View 32 v70,2013-02-05 16:22:00,
2013-02-05 06:27:00,65.5,59.8,30.07,North,4,17.0,36.0,82,0.00,,,0.00,Weather View 32 v70,2013-02-05 16:27:00,
2013-02-05 06:32:00,65.6,59.9,30.07,NNW,341,25.0,38.0,82,0.00,,,0.00,Weather View 32 v70,2013-02-05 16:32:00,
2013-02-05 06:37:00,65.6,59.9,30.08,NNE,16,26.0,38.0,82,0.00,,,0.00,Weather View 32 v70,2013-02-05 16:37:00,
2013-02-05 06:42:00,65.8,59.8,30.07,North,352,37.0,38.0,81,0.00,,,0.00,Weather View 32 v70,2013-02-05 16:42:00,
2013-02-05 06:47:00,66.0,60.0,30.06,NNW,331,13.0,42.0,81,0.00,,,0.00,Weather View 32 v70,2013-02-05 16:47:00,
2013-02-05 06:52:00,65.9,59.9,30.06,North,355,32.0,42.0,81,0.00,,,0.00,Weather View 32 v70,2013-02-05 16:52:00,
2013-02-05 06:57:00,66.1,59.7,30.07,North,351,33.0,42.0,80,0.00,,,0.00,Weather View 32 v70,2013-02-05 16:57:00,
2013-02-05 07:02:00,66.2,59.8,30.08,North,6,37.0,42.0,80,0.00,,,0.00,Weather View 32 v70,2013-02-05 17:02:00,
2013-02-05 07:07:00,66.2,59.8,30.07,North,10,27.0,42.0,80,0.00,,,0.00,Weather View 32 v70,2013-02-05 17:07:00,
2013-02-05 07:12:00,66.1,60.1,30.07,NNW,347,37.0,42.0,81,0.00,,,0.00,Weather View 32 v70,2013-02-05 17:12:00,
2013-02-05 07:17:00,66.1,60.1,30.07,North,350,22.0,44.0,81,0.00,,,0.00,Weather View 32 v70,2013-02-05 17:17:00,
2013-02-05 07:22:00,66.2,60.2,30.09,NW,320,21.0,44.0,81,0.00,,,0.00,Weather View 32 v70,2013-02-05 17:22:00,
2013-02-05 07:27:00,66.3,60.3,30.06,NW,307,26.0,44.0,81,0.00,,,0.00,Weather View 32 v70,2013-02-05 17:27:00,
2013-02-05 07:32:00,66.3,60.3,30.09,NNE,14,21.0,44.0,81,0.00,,,0.00,Weather View 32 v70,2013-02-05 17:32:00,
2013-02-05 07:37:00,66.5,60.5,30.09,NNE,18,22.0,44.0,81,0.00,,,0.00,Weather View 32 v70,2013-02-05 17:37:00,
2013-02-05 07:42:00,66.7,60.0,30.08,NNE,12,28.0,44.0,79,0.00,,,0.00,Weather View 32 v70,2013-02-05 17:42:00,
2013-02-05 07:47:00,66.9,59.8,30.09,North,352,23.0,44.0,78,0.00,,,0.00,Weather View 32 v70,2013-02-05 17:47:00,
2013-02-05 07:52:00,67.0,59.5,30.09,North,360,23.0,44.0,77,0.00,,,0.00,Weather View 32 v70,2013-02-05 17:52:00,
2013-02-05 07:57:00,67.1,59.3,30.08,NNE,13,25.0,44.0,76,0.00,,,0.00,Weather View 32 v70,2013-02-05 17:57:00,
2013-02-05 08:02:00,67.2,59.4,30.08,NNW,344,25.0,44.0,76,0.00,,,0.00,Weather View 32 v70,2013-02-05 18:02:00,
2013-02-05 08:07:00,67.2,59.0,30.09,North,6,29.0,44.0,75,0.00,,,0.00,Weather View 32 v70,2013-02-05 18:07:00,
2013-02-05 08:12:00,67.3,59.1,30.08,NNE,14,29.0,44.0,75,0.00,,,0.00,Weather View 32 v70,2013-02-05 18:12:00,
2013-02-05 08:17:00,67.4,59.2,30.07,NNE,28,26.0,39.0,75,0.00,,,0.00,Weather View 32 v70,2013-02-05 18:17:00,
2013-02-05 08:22:00,67.5,59.6,30.09,North,11,28.0,39.0,76,0.00,,,0.00,Weather View 32 v70,2013-02-05 18:22:00,
2013-02-05 08:27:00,67.5,59.6,30.08,NNE,15,33.0,39.0,76,0.00,,,0.00,Weather View 32 v70,2013-02-05 18:27:00,
2013-02-05 08:32:00,67.6,60.1,30.08,North,8,25.0,39.0,77,0.00,,,0.00,Weather View 32 v70,2013-02-05 18:32:00,
2013-02-05 08:37:00,67.6,59.7,30.09,North,6,29.0,39.0,76,0.00,,,0.00,Weather View 32 v70,2013-02-05 18:37:00,
2013-02-05 08:42:00,67.9,60.0,30.09,NNE,22,24.0,39.0,76,0.00,,,0.00,Weather View 32 v70,2013-02-05 18:42:00,
2013-02-05 08:47:00,68.1,60.2,30.09,NNE,16,27.0,39.0,76,0.00,,,0.00,Weather View 32 v70,2013-02-05 18:47:00,
2013-02-05 08:53:00,68.0,59.8,30.08,North,355,29.0,39.0,75,0.00,,,0.00,Weather View 32 v70,2013-02-05 18:53:00,
2013-02-05 08:58:00,68.0,59.4,30.07,NNE,17,31.0,39.0,74,0.00,,,0.00,Weather View 32 v70,2013-02-05 18:58:00,
2013-02-05 09:00:00,67.9,59.3,30.09,North,355,32.0,39.0,74,0.00,,,0.00,Weather View 32 v70,2013-02-05 19:00:00,
2013-02-05 09:04:00,68.2,59.9,30.10,North,352,26.0,39.0,75,0.00,,,0.00,Weather View 32 v70,2013-02-05 19:04:00,
2013-02-05 09:20:00,67.9,59.7,30.09,NNE,18,30.0,40.0,75,0.00,,,0.00,Weather View 32 v70,2013-02-05 19:20:00,
2013-02-05 09:37:00,67.8,60.3,30.10,NNE,30,29.0,40.0,77,0.00,,,0.00,Weather View 32 v70,2013-02-05 19:37:00,
2013-02-05 09:45:00,67.9,60.0,30.09,North,9,37.0,40.0,76,0.00,,,0.00,Weather View 32 v70,2013-02-05 19:45:00,
2013-02-05 09:52:00,68.6,59.6,30.07,North,356,30.0,40.0,73,0.00,,,0.00,Weather View 32 v70,2013-02-05 19:52:00,
2013-02-05 09:59:00,68.8,60.1,30.10,NNW,337,29.0,40.0,74,0.00,,,0.00,Weather View 32 v70,2013-02-05 19:59:00,
2013-02-05 10:04:00,68.7,60.0,30.10,NNE,17,24.0,40.0,74,0.00,,,0.00,Weather View 32 v70,2013-02-05 20:04:00,
2013-02-05 10:09:00,68.5,59.1,30.09,NNE,14,19.0,40.0,72,0.00,,,0.00,Weather View 32 v70,2013-02-05 20:09:00,
2013-02-05 10:10:00,68.5,59.5,30.11,ENE,68,20.0,40.0,73,0.00,,,0.00,Weather View 32 v70,2013-02-05 20:10:00,
2013-02-05 10:14:00,68.5,59.9,30.09,North,353,30.0,37.0,74,0.00,,,0.00,Weather View 32 v70,2013-02-05 20:14:00,
2013-02-05 10:15:00,68.5,59.9,30.09,NNE,17,32.0,37.0,74,0.00,,,0.00,Weather View 32 v70,2013-02-05 20:15:00,
2013-02-05 10:21:00,68.6,60.3,30.09,NNE,14,21.0,37.0,75,0.00,,,0.00,Weather View 32 v70,2013-02-05 20:21:00,
2013-02-05 10:27:00,68.9,61.0,30.07,NNE,16,34.0,37.0,76,0.00,,,0.00,Weather View 32 v70,2013-02-05 20:27:00,
2013-02-05 10:30:00,68.4,61.2,30.07,North,3,33.0,42.0,78,0.00,,,0.00,Weather View 32 v70,2013-02-05 20:30:00,
2013-02-05 10:32:00,68.4,60.9,30.07,NNE,16,32.0,42.0,77,0.00,,,0.00,Weather View 32 v70,2013-02-05 20:32:00,
2013-02-05 10:35:00,68.5,60.6,30.08,NNW,347,35.0,42.0,76,0.00,,,0.00,Weather View 32 v70,2013-02-05 20:35:00,
2013-02-05 10:37:00,68.6,60.3,30.08,NNE,20,31.0,42.0,75,0.00,,,0.00,Weather View 32 v70,2013-02-05 20:37:00,
2013-02-05 10:40:00,68.6,61.1,30.07,NNE,26,35.0,42.0,77,0.00,,,0.00,Weather View 32 v70,2013-02-05 20:40:00,
2013-02-05 10:43:00,68.5,61.3,30.07,NNE,16,32.0,46.0,78,0.00,,,0.00,Weather View 32 v70,2013-02-05 20:43:00,
2013-02-05 10:45:00,68.3,61.5,30.05,North,355,37.0,46.0,79,0.00,,,0.00,Weather View 32 v70,2013-02-05 20:45:00,
2013-02-05 10:48:00,68.7,62.3,30.08,NNE,22,25.0,46.0,80,0.00,,,0.00,Weather View 32 v70,2013-02-05 20:48:00,
2013-02-05 10:50:00,69.0,62.6,30.07,NNE,23,33.0,46.0,80,0.00,,,0.00,Weather View 32 v70,2013-02-05 20:50:00,
2013-02-05 10:54:00,68.0,61.6,30.05,North,6,31.0,46.0,80,0.00,,,0.00,Weather View 32 v70,2013-02-05 20:54:00,
2013-02-05 10:59:00,68.6,61.4,30.06,NNE,26,33.0,46.0,78,0.00,,,0.00,Weather View 32 v70,2013-02-05 20:59:00,
2013-02-05 11:00:00,68.6,61.4,30.08,NNE,26,31.0,46.0,78,0.00,,,0.00,Weather View 32 v70,2013-02-05 21:00:00,
2013-02-05 11:04:00,68.0,60.5,30.06,North,10,32.0,46.0,77,0.00,,,0.00,Weather View 32 v70,2013-02-05 21:04:00,
2013-02-05 11:15:00,68.1,61.0,30.07,North,7,23.0,46.0,78,0.00,,,0.00,Weather View 32 v70,2013-02-05 21:15:00,
2013-02-05 11:16:00,68.2,61.1,30.07,NE,41,26.0,46.0,78,0.00,,,0.00,Weather View 32 v70,2013-02-05 21:16:00,
2013-02-05 11:21:00,68.1,60.6,30.05,North,351,23.0,46.0,77,0.00,,,0.00,Weather View 32 v70,2013-02-05 21:21:00,
2013-02-05 11:26:00,68.6,60.7,30.06,NE,51,31.0,46.0,76,0.00,,,0.00,Weather View 32 v70,2013-02-05 21:26:00,
2013-02-05 11:33:00,68.1,60.2,30.05,NNE,25,22.0,46.0,76,0.00,,,0.00,Weather View 32 v70,2013-02-05 21:33:00,
2013-02-05 11:40:00,68.5,60.6,30.07,NNE,20,32.0,46.0,76,0.00,,,0.00,Weather View 32 v70,2013-02-05 21:40:00,
2013-02-05 11:45:00,68.3,60.0,30.07,North,10,32.0,44.0,75,0.00,,,0.00,Weather View 32 v70,2013-02-05 21:45:00,
2013-02-05 11:54:00,68.4,60.1,30.06,NE,41,26.0,44.0,75,0.00,,,0.00,Weather View 32 v70,2013-02-05 21:54:00,
2013-02-05 12:05:00,68.8,60.1,30.05,NNE,12,31.0,44.0,74,0.00,,,0.00,Weather View 32 v70,2013-02-05 22:05:00,
2013-02-05 12:10:00,68.6,60.7,30.04,North,9,30.0,44.0,76,0.00,,,0.00,Weather View 32 v70,2013-02-05 22:10:00,
2013-02-05 12:15:00,68.1,60.6,30.03,NNE,12,28.0,44.0,77,0.00,,,0.00,Weather View 32 v70,2013-02-05 22:15:00,
2013-02-05 12:20:00,68.0,60.5,30.03,North,7,32.0,44.0,77,0.00,,,0.00,Weather View 32 v70,2013-02-05 22:20:00,
2013-02-05 12:21:00,67.9,60.4,30.04,NNE,24,28.0,44.0,77,0.00,,,0.00,Weather View 32 v70,2013-02-05 22:21:00,
2013-02-05 12:27:00,68.0,61.6,30.03,North,354,27.0,43.0,80,0.00,,,0.00,Weather View 32 v70,2013-02-05 22:27:00,
2013-02-05 12:32:00,67.7,61.3,30.03,NNE,22,33.0,43.0,80,0.00,,,0.00,Weather View 32 v70,2013-02-05 22:32:00,
2013-02-05 12:37:00,67.7,60.9,30.03,NNE,20,29.0,43.0,79,0.00,,,0.00,Weather View 32 v70,2013-02-05 22:37:00,
2013-02-05 12:42:00,68.1,61.7,30.04,North,6,27.0,43.0,80,0.00,,,0.00,Weather View 32 v70,2013-02-05 22:42:00,
2013-02-05 13:04:00,67.9,61.1,30.03,NNE,18,28.0,42.0,79,0.00,,,0.00,Weather View 32 v70,2013-02-05 23:04:00,
2013-02-05 13:10:00,68.4,61.6,30.01,NNE,12,37.0,42.0,79,0.00,,,0.00,Weather View 32 v70,2013-02-05 23:10:00,
2013-02-05 13:15:00,67.8,61.4,30.02,NNE,18,35.0,42.0,80,0.00,,,0.00,Weather View 32 v70,2013-02-05 23:15:00,
2013-02-05 13:20:00,68.1,61.7,30.02,North,352,32.0,42.0,80,0.00,,,0.00,Weather View 32 v70,2013-02-05 23:20:00,
2013-02-05 13:21:00,68.2,61.8,30.02,North,8,27.0,42.0,80,0.00,,,0.00,Weather View 32 v70,2013-02-05 23:21:00,
2013-02-05 13:25:00,68.1,60.6,30.01,NNE,22,31.0,42.0,77,0.00,,,0.00,Weather View 32 v70,2013-02-05 23:25:00,
2013-02-05 13:27:00,68.3,61.2,30.01,North,3,28.0,42.0,78,0.00,,,0.00,Weather View 32 v70,2013-02-05 23:27:00,
2013-02-05 13:30:00,68.4,60.1,30.02,NNE,13,30.0,42.0,75,0.00,,,0.00,Weather View 32 v70,2013-02-05 23:30:00,
2013-02-05 13:38:00,68.6,60.3,30.01,North,1,36.0,42.0,75,0.00,,,0.00,Weather View 32 v70,2013-02-05 23:38:00,
2013-02-05 13:44:00,68.6,60.3,30.01,NNW,330,24.0,42.0,75,0.00,,,0.00,Weather View 32 v70,2013-02-05 23:44:00,
2013-02-05 13:50:00,68.6,60.0,30.01,NNE,13,26.0,42.0,74,0.00,,,0.00,Weather View 32 v70,2013-02-05 23:50:00,
2013-02-05 13:55:00,68.5,59.5,30.01,North,350,30.0,39.0,73,0.00,,,0.00,Weather View 32 v70,2013-02-05 23:55:00,
2013-02-05 14:00:00,68.7,60.0,30.02,NNW,336,24.0,39.0,74,0.00,,,0.00,Weather View 32 v70,2013-02-06 00:00:00,
2013-02-05 14:05:00,68.4,60.1,30.02,North,349,28.0,39.0,75,0.00,,,0.00,Weather View 32 v70,2013-02-06 00:05:00,
2013-02-05 14:10:00,68.6,60.0,30.02,North,10,26.0,39.0,74,0.00,,,0.00,Weather View 32 v70,2013-02-06 00:10:00,
2013-02-05 14:16:00,68.5,59.9,30.01,NNE,16,24.0,39.0,74,0.00,,,0.00,Weather View 32 v70,2013-02-06 00:16:00,
2013-02-05 14:22:00,68.4,60.1,30.02,NNW,346,32.0,39.0,75,0.00,,,0.00,Weather View 32 v70,2013-02-06 00:22:00,
2013-02-05 14:27:00,68.2,60.3,30.03,North,4,29.0,37.0,76,0.00,,,0.00,Weather View 32 v70,2013-02-06 00:27:00,
2013-02-05 14:34:00,68.3,60.0,30.02,North,357,15.0,36.0,75,0.00,,,0.00,Weather View 32 v70,2013-02-06 00:34:00,
2013-02-05 14:40:00,68.5,59.9,30.02,NNE,14,18.0,36.0,74,0.00,,,0.00,Weather View 32 v70,2013-02-06 00:40:00,
2013-02-05 14:46:00,68.4,60.1,30.02,NE,39,19.0,36.0,75,0.00,,,0.00,Weather View 32 v70,2013-02-06 00:46:00,
2013-02-05 14:51:00,68.5,60.2,30.02,NNW,344,22.0,35.0,75,0.00,,,0.00,Weather View 32 v70,2013-02-06 00:51:00,
2013-02-05 14:57:00,68.6,60.0,30.02,North,2,23.0,35.0,74,0.00,,,0.00,Weather View 32 v70,2013-02-06 00:57:00,
2013-02-05 15:02:00,68.8,60.1,30.02,North,351,22.0,35.0,74,0.00,,,0.00,Weather View 32 v70,2013-02-06 01:02:00,
2013-02-05 15:08:00,68.6,60.0,30.00,North,353,30.0,35.0,74,0.00,,,0.00,Weather View 32 v70,2013-02-06 01:08:00,
2013-02-05 15:13:00,68.6,60.3,30.02,NW,312,13.0,35.0,75,0.00,,,0.00,Weather View 32 v70,2013-02-06 01:13:00,
2013-02-05 15:15:00,68.7,60.4,30.01,NNW,332,19.0,35.0,75,0.00,,,0.00,Weather View 32 v70,2013-02-06 01:15:00,
2013-02-05 15:18:00,68.4,60.5,30.02,NW,321,15.0,35.0,76,0.00,,,0.00,Weather View 32 v70,2013-02-06 01:18:00,
2013-02-05 15:24:00,68.4,60.9,30.01,North,1,29.0,35.0,77,0.00,,,0.00,Weather View 32 v70,2013-02-06 01:24:00,
2013-02-05 15:30:00,68.4,60.9,30.01,NNW,347,26.0,33.0,77,0.00,,,0.00,Weather View 32 v70,2013-02-06 01:30:00,
2013-02-05 15:35:00,68.2,60.7,30.02,NNW,347,16.0,33.0,77,0.00,,,0.00,Weather View 32 v70,2013-02-06 01:35:00,
2013-02-05 15:41:00,68.3,60.4,30.02,North,353,18.0,33.0,76,0.00,,,0.00,Weather View 32 v70,2013-02-06 01:41:00,
2013-02-05 15:47:00,68.4,60.5,30.02,NW,316,17.0,32.0,76,0.00,,,0.00,Weather View 32 v70,2013-02-06 01:47:00,
2013-02-05 15:53:00,68.5,61.0,30.03,North,360,22.0,32.0,77,0.00,,,0.00,Weather View 32 v70,2013-02-06 01:53:00,
2013-02-05 15:58:00,68.4,60.9,30.01,NNW,327,22.0,34.0,77,0.00,,,0.00,Weather View 32 v70,2013-02-06 01:58:00,
2013-02-05 16:03:00,68.3,61.2,30.01,NNW,343,26.0,34.0,78,0.00,,,0.00,Weather View 32 v70,2013-02-06 02:03:00,
2013-02-05 16:05:00,68.1,61.0,30.02,NNW,339,24.0,34.0,78,0.00,,,0.00,Weather View 32 v70,2013-02-06 02:05:00,
2013-02-05 16:08:00,68.1,61.0,30.02,NNW,346,22.0,34.0,78,0.00,,,0.00,Weather View 32 v70,2013-02-06 02:08:00,
2013-02-05 16:10:00,68.2,61.1,30.02,North,352,23.0,34.0,78,0.00,,,0.00,Weather View 32 v70,2013-02-06 02:10:00,
2013-02-05 16:14:00,68.2,61.1,30.02,North,357,18.0,34.0,78,0.00,,,0.00,Weather View 32 v70,2013-02-06 02:14:00,
2013-02-05 16:19:00,68.1,61.3,30.02,NNW,328,24.0,34.0,79,0.00,,,0.00,Weather View 32 v70,2013-02-06 02:19:00,
2013-02-05 16:25:00,68.1,61.0,30.03,North,349,23.0,34.0,78,0.00,,,0.00,Weather View 32 v70,2013-02-06 02:25:00,
2013-02-05 16:30:00,68.1,61.0,30.03,NW,316,14.0,34.0,78,0.00,,,0.00,Weather View 32 v70,2013-02-06 02:30:00,
2013-02-05 16:35:00,68.1,61.3,30.03,NNW,333,23.0,34.0,79,0.00,,,0.00,Weather View 32 v70,2013-02-06 02:35:00,
2013-02-05 16:40:00,68.0,61.2,30.03,North,354,16.0,34.0,79,0.00,,,0.00,Weather View 32 v70,2013-02-06 02:40:00,
2013-02-05 16:45:00,67.8,61.4,30.03,North,1,17.0,34.0,80,0.00,,,0.00,Weather View 32 v70,2013-02-06 02:45:00,
2013-02-05 16:50:00,67.6,61.5,30.04,NNW,340,22.0,34.0,81,0.00,,,0.00,Weather View 32 v70,2013-02-06 02:50:00,
2013-02-05 16:55:00,67.5,61.4,30.04,North,1,18.0,34.0,81,0.00,,,0.00,Weather View 32 v70,2013-02-06 02:55:00,
2013-02-05 17:00:00,67.3,61.9,30.03,North,355,23.0,33.0,83,0.00,,,0.00,Weather View 32 v70,2013-02-06 03:00:00,
2013-02-05 17:05:00,67.0,61.6,30.04,NNW,330,14.0,33.0,83,0.00,,,0.00,Weather View 32 v70,2013-02-06 03:05:00,
2013-02-05 17:10:00,66.8,61.1,30.04,North,352,23.0,33.0,82,0.00,,,0.00,Weather View 32 v70,2013-02-06 03:10:00,
2013-02-05 17:15:00,66.8,61.1,30.04,NNW,341,23.0,33.0,82,0.00,,,0.00,Weather View 32 v70,2013-02-06 03:15:00,
2013-02-05 17:20:00,66.8,61.5,30.04,North,6,25.0,33.0,83,0.00,,,0.00,Weather View 32 v70,2013-02-06 03:20:00,
2013-02-05 17:25:00,66.8,60.8,30.03,NNW,347,25.0,33.0,81,0.00,,,0.00,Weather View 32 v70,2013-02-06 03:25:00,
2013-02-05 17:30:00,66.9,60.5,30.04,NNW,332,24.0,33.0,80,0.00,,,0.00,Weather View 32 v70,2013-02-06 03:30:00,
2013-02-05 17:35:00,66.9,60.9,30.04,NNW,347,19.0,33.0,81,0.00,,,0.00,Weather View 32 v70,2013-02-06 03:35:00,
2013-02-05 17:40:00,67.0,61.3,30.04,NNW,341,20.0,33.0,82,0.00,,,0.00,Weather View 32 v70,2013-02-06 03:40:00,
2013-02-05 17:45:00,66.9,61.2,30.04,NNW,328,19.0,33.0,82,0.00,,,0.00,Weather View 32 v70,2013-02-06 03:45:00,
2013-02-05 17:50:00,66.9,61.2,30.04,NW,321,17.0,34.0,82,0.00,,,0.00,Weather View 32 v70,2013-02-06 03:50:00,
2013-02-05 17:55:00,66.9,61.2,30.05,NW,324,14.0,34.0,82,0.00,,,0.00,Weather View 32 v70,2013-02-06 03:55:00,
2013-02-05 18:00:00,67.0,61.3,30.04,North,2,22.0,34.0,82,0.00,,,0.00,Weather View 32 v70,2013-02-06 04:00:00,
2013-02-05 18:05:00,66.9,61.2,30.05,North,351,20.0,34.0,82,0.00,,,0.00,Weather View 32 v70,2013-02-06 04:05:00,
2013-02-05 18:10:00,66.9,61.2,30.06,North,355,13.0,34.0,82,0.00,,,0.00,Weather View 32 v70,2013-02-06 04:10:00,
2013-02-05 18:15:00,66.9,61.6,30.05,North,1,21.0,34.0,83,0.00,,,0.00,Weather View 32 v70,2013-02-06 04:15:00,
2013-02-05 18:20:00,66.8,61.1,30.06,NNE,18,16.0,34.0,82,0.00,,,0.00,Weather View 32 v70,2013-02-06 04:20:00,
2013-02-05 18:25:00,66.8,60.8,30.06,North,357,22.0,34.0,81,0.00,,,0.00,Weather View 32 v70,2013-02-06 04:25:00,
2013-02-05 18:30:00,66.9,60.5,30.06,NW,318,20.0,34.0,80,0.00,,,0.00,Weather View 32 v70,2013-02-06 04:30:00,
2013-02-05 18:35:00,66.8,60.4,30.06,North,360,23.0,34.0,80,0.00,,,0.00,Weather View 32 v70,2013-02-06 04:35:00,
2013-02-05 18:40:00,66.9,60.5,30.06,North,359,7.0,34.0,80,0.00,,,0.00,Weather View 32 v70,2013-02-06 04:40:00,
2013-02-05 18:45:00,66.9,60.5,30.06,North,349,17.0,34.0,80,0.00,,,0.00,Weather View 32 v70,2013-02-06 04:45:00,
2013-02-05 18:50:00,66.9,60.5,30.06,North,351,16.0,32.0,80,0.00,,,0.00,Weather View 32 v70,2013-02-06 04:50:00,
2013-02-05 18:55:00,67.0,60.2,30.07,NW,318,9.0,32.0,79,0.00,,,0.00,Weather View 32 v70,2013-02-06 04:55:00,
2013-02-05 19:00:00,67.0,60.2,30.06,NW,326,22.0,32.0,79,0.00,,,0.00,Weather View 32 v70,2013-02-06 05:00:00,
2013-02-05 19:05:00,67.0,60.2,30.06,NW,324,15.0,32.0,79,0.00,,,0.00,Weather View 32 v70,2013-02-06 05:05:00,
2013-02-05 19:10:00,67.0,60.6,30.06,WNW,299,18.0,32.0,80,0.00,,,0.00,Weather View 32 v70,2013-02-06 05:10:00,
2013-02-05 19:15:00,67.1,60.3,30.05,NNW,339,26.0,32.0,79,0.00,,,0.00,Weather View 32 v70,2013-02-06 05:15:00,
2013-02-05 19:20:00,67.1,60.0,30.06,NNW,335,25.0,36.0,78,0.00,,,0.00,Weather View 32 v70,2013-02-06 05:20:00,
2013-02-05 19:25:00,67.0,60.2,30.07,NNW,330,17.0,36.0,79,0.00,,,0.00,Weather View 32 v70,2013-02-06 05:25:00,
2013-02-05 19:30:00,66.9,60.2,30.07,North,358,20.0,36.0,79,0.00,,,0.00,Weather View 32 v70,2013-02-06 05:30:00,
2013-02-05 19:35:00,66.9,60.2,30.07,NNW,330,17.0,36.0,79,0.00,,,0.00,Weather View 32 v70,2013-02-06 05:35:00,
2013-02-05 19:40:00,66.9,60.2,30.07,NNW,337,22.0,36.0,79,0.00,,,0.00,Weather View 32 v70,2013-02-06 05:40:00,
2013-02-05 19:45:00,66.9,60.2,30.08,North,349,13.0,36.0,79,0.00,,,0.00,Weather View 32 v70,2013-02-06 05:45:00,
2013-02-05 19:50:00,67.0,60.2,30.08,North,351,20.0,36.0,79,0.00,,,0.00,Weather View 32 v70,2013-02-06 05:50:00,
2013-02-05 19:55:00,67.0,60.2,30.09,NW,326,20.0,36.0,79,0.00,,,0.00,Weather View 32 v70,2013-02-06 05:55:00,
2013-02-05 20:00:00,67.0,59.9,30.09,North,352,17.0,36.0,78,0.00,,,0.00,Weather View 32 v70,2013-02-06 06:00:00,
2013-02-05 20:05:00,67.1,60.0,30.09,NNE,14,17.0,36.0,78,0.00,,,0.00,Weather View 32 v70,2013-02-06 06:05:00,
2013-02-05 20:10:00,67.2,59.7,30.08,North,352,28.0,36.0,77,0.00,,,0.00,Weather View 32 v70,2013-02-06 06:10:00,
2013-02-05 20:15:00,67.2,60.1,30.08,North,354,14.0,37.0,78,0.00,,,0.00,Weather View 32 v70,2013-02-06 06:15:00,
2013-02-05 20:20:00,67.1,60.0,30.10,North,3,16.0,37.0,78,0.00,,,0.00,Weather View 32 v70,2013-02-06 06:20:00,
2013-02-05 20:25:00,67.1,59.6,30.10,North,359,19.0,37.0,77,0.00,,,0.00,Weather View 32 v70,2013-02-06 06:25:00,
2013-02-05 20:30:00,67.2,59.7,30.10,NNW,343,15.0,37.0,77,0.00,,,0.00,Weather View 32 v70,2013-02-06 06:30:00,
2013-02-05 20:35:00,67.2,59.7,30.09,North,349,12.0,37.0,77,0.00,,,0.00,Weather View 32 v70,2013-02-06 06:35:00,
2013-02-05 20:40:00,66.9,59.8,30.11,North,355,15.0,37.0,78,0.00,,,0.00,Weather View 32 v70,2013-02-06 06:40:00,
2013-02-05 20:45:00,66.7,60.0,30.11,North,360,23.0,37.0,79,0.00,,,0.00,Weather View 32 v70,2013-02-06 06:45:00,
2013-02-05 20:50:00,66.5,59.4,30.12,NNW,345,10.0,37.0,78,0.00,,,0.00,Weather View 32 v70,2013-02-06 06:50:00,
2013-02-05 20:55:00,66.6,59.5,30.11,North,8,15.0,37.0,78,0.00,,,0.00,Weather View 32 v70,2013-02-06 06:55:00,
2013-02-05 21:00:00,66.4,59.7,30.11,NW,325,14.0,37.0,79,0.00,,,0.00,Weather View 32 v70,2013-02-06 07:00:00,
2013-02-05 21:05:00,66.1,59.7,30.11,NNE,19,10.0,37.0,80,0.00,,,0.00,Weather View 32 v70,2013-02-06 07:05:00,
2013-02-05 21:10:00,66.1,59.7,30.11,NNW,333,16.0,37.0,80,0.00,,,0.00,Weather View 32 v70,2013-02-06 07:10:00,
2013-02-05 21:15:00,66.1,59.7,30.12,North,349,7.0,27.0,80,0.00,,,0.00,Weather View 32 v70,2013-02-06 07:15:00,
2013-02-05 21:20:00,66.1,59.7,30.11,WNW,296,11.0,27.0,80,0.00,,,0.00,Weather View 32 v70,2013-02-06 07:20:00,
2013-02-05 21:25:00,66.4,60.4,30.11,NW,322,17.0,27.0,81,0.00,,,0.00,Weather View 32 v70,2013-02-06 07:25:00,
2013-02-05 21:30:00,66.5,60.5,30.11,NNW,330,13.0,27.0,81,0.00,,,0.00,Weather View 32 v70,2013-02-06 07:30:00,
2013-02-05 21:35:00,66.7,60.7,30.11,NNW,328,10.0,27.0,81,0.00,,,0.00,Weather View 32 v70,2013-02-06 07:35:00,
2013-02-05 21:40:00,66.7,60.7,30.11,NNW,342,18.0,27.0,81,0.00,,,0.00,Weather View 32 v70,2013-02-06 07:40:00,
2013-02-05 21:45:00,66.8,61.1,30.09,NW,326,17.0,26.0,82,0.00,,,0.00,Weather View 32 v70,2013-02-06 07:45:00,
2013-02-05 21:50:00,67.0,61.0,30.08,NNW,333,28.0,33.0,81,0.00,,,0.00,Weather View 32 v70,2013-02-06 07:50:00,
2013-02-05 21:55:00,67.0,61.3,30.08,NNW,341,25.0,33.0,82,0.00,,,0.00,Weather View 32 v70,2013-02-06 07:55:00,
2013-02-05 22:00:00,66.7,61.0,30.10,North,357,19.0,33.0,82,0.00,,,0.00,Weather View 32 v70,2013-02-06 08:00:00,
2013-02-05 22:05:00,66.9,60.9,30.10,North,6,15.0,33.0,81,0.00,,,0.00,Weather View 32 v70,2013-02-06 08:05:00,
2013-02-05 22:10:00,66.8,61.1,30.10,North,359,17.0,33.0,82,0.00,,,0.00,Weather View 32 v70,2013-02-06 08:10:00,
2013-02-05 22:15:00,66.7,61.0,30.10,NNW,345,8.0,33.0,82,0.00,,,0.00,Weather View 32 v70,2013-02-06 08:15:00,
2013-02-05 22:20:00,66.6,61.3,30.10,NNW,346,10.0,33.0,83,0.00,,,0.00,Weather View 32 v70,2013-02-06 08:20:00,
2013-02-05 22:25:00,66.6,61.3,30.10,NW,325,11.0,33.0,83,0.00,,,0.00,Weather View 32 v70,2013-02-06 08:25:00,
2013-02-05 22:30:00,66.7,61.4,30.10,NW,312,19.0,33.0,83,0.00,,,0.00,Weather View 32 v70,2013-02-06 08:30:00,
2013-02-05 22:35:00,66.7,61.4,30.09,North,350,15.0,33.0,83,0.00,,,0.00,Weather View 32 v70,2013-02-06 08:35:00,
2013-02-05 22:40:00,66.6,61.3,30.09,North,358,19.0,33.0,83,0.00,,,0.00,Weather View 32 v70,2013-02-06 08:40:00,
2013-02-05 22:45:00,66.4,61.7,30.09,NNW,339,23.0,33.0,85,0.00,,,0.00,Weather View 32 v70,2013-02-06 08:45:00,
2013-02-05 22:50:00,65.6,61.6,30.09,NNW,328,18.0,31.0,87,0.00,,,0.00,Weather View 32 v70,2013-02-06 08:50:00,
2013-02-05 22:55:00,66.0,62.0,30.09,North,353,16.0,31.0,87,0.00,,,0.00,Weather View 32 v70,2013-02-06 08:55:00,
2013-02-05 23:00:00,66.0,62.0,30.08,North,355,24.0,31.0,87,0.00,,,0.00,Weather View 32 v70,2013-02-06 09:00:00,
2013-02-05 23:05:00,66.0,62.0,30.09,North,1,20.0,31.0,87,0.00,,,0.00,Weather View 32 v70,2013-02-06 09:05:00,
2013-02-05 23:10:00,66.0,62.3,30.09,North,8,21.0,31.0,88,0.00,,,0.00,Weather View 32 v70,2013-02-06 09:10:00,
2013-02-05 23:16:00,65.9,62.2,30.09,NNW,347,25.0,31.0,88,0.00,,,0.00,Weather View 32 v70,2013-02-06 09:16:00,
2013-02-05 23:21:00,65.9,62.6,30.09,North,6,17.0,31.0,89,0.00,,,0.00,Weather View 32 v70,2013-02-06 09:21:00,
2013-02-05 23:26:00,65.9,62.2,30.08,North,4,22.0,31.0,88,0.00,,,0.00,Weather View 32 v70,2013-02-06 09:26:00,
2013-02-05 23:31:00,65.8,62.5,30.08,North,354,22.0,31.0,89,0.00,,,0.00,Weather View 32 v70,2013-02-06 09:31:00,
2013-02-05 23:36:00,65.4,62.7,30.06,East,80,26.0,33.0,91,0.00,,,0.00,Weather View 32 v70,2013-02-06 09:36:00,
2013-02-05 23:41:00,65.1,62.4,30.08,North,11,24.0,33.0,91,0.00,,,0.00,Weather View 32 v70,2013-02-06 09:41:00,
2013-02-05 23:46:00,64.7,62.3,30.07,North,354,30.0,34.0,92,0.00,,,0.00,Weather View 32 v70,2013-02-06 09:46:00,
2013-02-05 23:51:00,64.7,62.3,30.08,NNW,346,24.0,34.0,92,0.00,,,0.00,Weather View 32 v70,2013-02-06 09:51:00,
2013-02-05 23:56:00,64.7,62.6,30.07,North,6,22.0,34.0,93,0.02,,,0.02,Weather View 32 v70,2013-02-06 09:56:00,